Time,TemperatureF,DewpointF,PressureIn,WindDirection,WindDirectionDegrees,WindSpeedMPH,WindSpeedGustMPH,Humidity,HourlyPrecipIn,Conditions,Clouds,dailyrainin,SoftwareType,DateUTC
2013-08-31 00:14:00,76.7,64.0,29.90,WSW,243,1.0,2.0,64,0.00,,,0.00,weatherlink.com 1.10,2013-08-31 07:14:00,
2013-08-31 00:29:00,76.5,63.0,29.90,SW,233,1.0,1.0,64,0.00,,,0.00,weatherlink.com 1.10,2013-08-31 07:29:00,
2013-08-31 00:44:00,76.4,63.0,29.90,SW,230,0.0,2.0,64,0.00,,,0.00,weatherlink.com 1.10,2013-08-31 07:44:00,
2013-08-31 00:59:00,76.3,64.0,29.90,SW,220,0.0,2.0,65,0.00,,,0.00,weatherlink.com 1.10,2013-08-31 07:59:00,
2013-08-31 01:14:00,76.1,64.0,29.90,South,191,2.0,2.0,66,0.00,,,0.00,weatherlink.com 1.10,2013-08-31 08:14:00,
2013-08-31 01:29:00,75.9,64.0,29.90,SSW,192,0.0,2.0,67,0.00,,,0.00,weatherlink.com 1.10,2013-08-31 08:29:00,
2013-08-31 01:44:00,75.8,64.0,29.89,SW,220,0.0,0.0,66,0.00,,,0.00,weatherlink.com 1.10,2013-08-31 08:44:00,
2013-08-31 01:59:00,75.9,63.0,29.89,SW,224,0.0,0.0,64,0.00,,,0.00,weatherlink.com 1.10,2013-08-31 08:59:00,
2013-08-31 02:14:00,76.0,64.0,29.89,SW,224,0.0,0.0,66,0.00,,,0.00,weatherlink.com 1.10,2013-08-31 09:14:00,
2013-08-31 02:29:00,76.1,64.0,29.89,SW,224,0.0,0.0,66,0.00,,,0.00,weatherlink.com 1.10,2013-08-31 09:29:00,
2013-08-31 02:44:00,76.2,64.0,29.89,SSE,150,1.0,2.0,66,0.00,,,0.00,weatherlink.com 1.10,2013-08-31 09:44:00,
2013-08-31 02:59:00,76.3,64.0,29.88,South,171,0.0,2.0,65,0.00,,,0.00,weatherlink.com 1.10,2013-08-31 09:59:00,
2013-08-31 03:14:00,76.2,64.0,29.88,South,176,0.0,1.0,65,0.00,,,0.00,weatherlink.com 1.10,2013-08-31 10:14:00,
2013-08-31 03:29:00,76.1,64.0,29.88,South,175,0.0,0.0,66,0.00,,,0.00,weatherlink.com 1.10,2013-08-31 10:29:00,
2013-08-31 03:44:00,75.8,64.0,29.88,South,176,0.0,0.0,67,0.00,,,0.00,weatherlink.com 1.10,2013-08-31 10:44:00,
2013-08-31 03:59:00,75.7,64.0,29.88,South,175,0.0,0.0,68,0.00,,,0.00,weatherlink.com 1.10,2013-08-31 10:59:00,
2013-08-31 04:15:00,75.5,65.0,29.87,South,175,0.0,0.0,69,0.00,,,0.00,weatherlink.com 1.10,2013-08-31 11:15:00,
2013-08-31 04:30:00,75.1,64.0,29.88,South,175,0.0,0.0,69,0.00,,,0.00,weatherlink.com 1.10,2013-08-31 11:30:00,
2013-08-31 04:45:00,75.2,64.0,29.88,South,175,0.0,0.0,69,0.00,,,0.00,weatherlink.com 1.10,2013-08-31 11:45:00,
2013-08-31 05:00:00,74.8,64.0,29.88,South,175,0.0,0.0,70,0.00,,,0.00,weatherlink.com 1.10,2013-08-31 12:00:00,
2013-08-31 05:15:00,74.7,65.0,29.88,South,176,0.0,0.0,71,0.00,,,0.00,weatherlink.com 1.10,2013-08-31 12:15:00,
2013-08-31 05:30:00,74.7,66.0,29.88,SSW,200,0.0,1.0,73,0.00,,,0.00,weatherlink.com 1.10,2013-08-31 12:30:00,
2013-08-31 05:45:00,75.0,66.0,29.89,SSW,200,0.0,0.0,73,0.00,,,0.00,weatherlink.com 1.10,2013-08-31 12:45:00,
2013-08-31 06:00:00,75.3,66.0,29.88,SSW,200,0.0,1.0,73,0.00,,,0.00,weatherlink.com 1.10,2013-08-31 13:00:00,
2013-08-31 06:15:00,75.4,66.0,29.89,SSW,206,0.0,0.0,73,0.00,,,0.00,weatherlink.com 1.10,2013-08-31 13:15:00,
2013-08-31 06:30:00,75.5,66.0,29.89,SSW,208,0.0,2.0,73,0.00,,,0.00,weatherlink.com 1.10,2013-08-31 13:30:00,
2013-08-31 06:45:00,75.7,66.0,29.90,SSW,209,0.0,1.0,72,0.00,,,0.00,weatherlink.com 1.10,2013-08-31 13:45:00,
2013-08-31 07:00:00,75.9,66.0,29.90,SSW,209,0.0,0.0,71,0.00,,,0.00,weatherlink.com 1.10,2013-08-31 14:00:00,
2013-08-31 07:15:00,76.4,66.0,29.90,SSW,208,0.0,1.0,71,0.00,,,0.00,weatherlink.com 1.10,2013-08-31 14:15:00,
2013-08-31 07:30:00,77.0,67.0,29.90,WSW,238,0.0,1.0,70,0.00,,,0.00,weatherlink.com 1.10,2013-08-31 14:30:00,
2013-08-31 07:45:00,77.3,66.0,29.90,SW,235,1.0,2.0,69,0.00,,,0.00,weatherlink.com 1.10,2013-08-31 14:45:00,
2013-08-31 08:00:00,77.7,67.0,29.91,WSW,245,2.0,2.0,69,0.00,,,0.00,weatherlink.com 1.10,2013-08-31 15:00:00,
2013-08-31 08:15:00,78.3,67.0,29.91,West,259,0.0,2.0,68,0.00,,,0.00,weatherlink.com 1.10,2013-08-31 15:15:00,
2013-08-31 08:30:00,79.2,67.0,29.91,SW,233,1.0,4.0,66,0.00,,,0.00,weatherlink.com 1.10,2013-08-31 15:30:00,
2013-08-31 08:45:00,80.0,68.0,29.91,WSW,239,0.0,1.0,66,0.00,,,0.00,weatherlink.com 1.10,2013-08-31 15:45:00,
2013-08-31 09:00:00,81.5,68.0,29.91,WSW,240,0.0,0.0,63,0.00,,,0.00,weatherlink.com 1.10,2013-08-31 16:00:00,
2013-08-31 09:15:00,82.0,68.0,29.92,SW,229,1.0,2.0,63,0.00,,,0.00,weatherlink.com 1.10,2013-08-31 16:15:00,
2013-08-31 09:30:00,82.4,69.0,29.92,SW,236,1.0,4.0,63,0.00,,,0.00,weatherlink.com 1.10,2013-08-31 16:30:00,
2013-08-31 09:45:00,83.0,69.0,29.92,SW,223,0.0,3.0,63,0.00,,,0.00,weatherlink.com 1.10,2013-08-31 16:45:00,
2013-08-31 10:00:00,83.5,69.0,29.92,West,265,2.0,3.0,61,0.00,,,0.00,weatherlink.com 1.10,2013-08-31 17:00:00,
2013-08-31 10:15:00,84.1,69.0,29.92,WSW,240,1.0,3.0,60,0.00,,,0.00,weatherlink.com 1.10,2013-08-31 17:15:00,
2013-08-31 10:30:00,85.1,70.0,29.92,WSW,250,3.0,3.0,60,0.00,,,0.00,weatherlink.com 1.10,2013-08-31 17:30:00,
2013-08-31 10:45:00,86.0,69.0,29.92,SSW,208,2.0,5.0,58,0.00,,,0.00,weatherlink.com 1.10,2013-08-31 17:45:00,
2013-08-31 11:00:00,86.8,70.0,29.92,SW,230,2.0,5.0,57,0.00,,,0.00,weatherlink.com 1.10,2013-08-31 18:00:00,
2013-08-31 11:15:00,87.2,71.0,29.92,SW,220,4.0,5.0,58,0.00,,,0.00,weatherlink.com 1.10,2013-08-31 18:15:00,
2013-08-31 11:30:00,88.9,70.0,29.91,South,176,0.0,6.0,54,0.00,,,0.00,weatherlink.com 1.10,2013-08-31 18:30:00,
2013-08-31 11:45:00,90.9,70.0,29.91,SSE,150,4.0,6.0,50,0.00,,,0.00,weatherlink.com 1.10,2013-08-31 18:45:00,
2013-08-31 12:00:00,91.4,70.0,29.91,SW,222,6.0,7.0,49,0.00,,,0.00,weatherlink.com 1.10,2013-08-31 19:00:00,
2013-08-31 12:15:00,91.6,69.0,29.90,SW,222,3.0,8.0,48,0.00,,,0.00,weatherlink.com 1.10,2013-08-31 19:15:00,
2013-08-31 12:30:00,92.1,68.0,29.90,SSE,166,5.0,9.0,45,0.00,,,0.00,weatherlink.com 1.10,2013-08-31 19:30:00,
2013-08-31 12:45:00,92.0,68.0,29.90,WSW,243,6.0,9.0,45,0.00,,,0.00,weatherlink.com 1.10,2013-08-31 19:45:00,
2013-08-31 13:00:00,92.4,69.0,29.89,SSW,212,3.0,13.0,47,0.00,,,0.00,weatherlink.com 1.10,2013-08-31 20:00:00,
2013-08-31 13:16:00,92.1,70.0,29.88,West,262,3.0,8.0,48,0.00,,,0.00,weatherlink.com 1.10,2013-08-31 20:16:00,
2013-08-31 13:31:00,93.1,70.0,29.88,WSW,240,2.0,8.0,47,0.00,,,0.00,weatherlink.com 1.10,2013-08-31 20:31:00,
2013-08-31 13:46:00,92.6,70.0,29.88,SSW,207,2.0,10.0,48,0.00,,,0.00,weatherlink.com 1.10,2013-08-31 20:46:00,
2013-08-31 14:01:00,92.7,70.0,29.87,South,179,4.0,10.0,48,0.00,,,0.00,weatherlink.com 1.10,2013-08-31 21:01:00,
2013-08-31 14:16:00,92.9,71.0,29.87,SW,215,4.0,10.0,49,0.00,,,0.00,weatherlink.com 1.10,2013-08-31 21:16:00,
2013-08-31 14:31:00,93.1,71.0,29.86,SW,221,4.0,8.0,49,0.00,,,0.00,weatherlink.com 1.10,2013-08-31 21:31:00,
2013-08-31 14:46:00,94.0,72.0,29.86,SE,128,4.0,9.0,49,0.00,,,0.00,weatherlink.com 1.10,2013-08-31 21:46:00,
2013-08-31 15:01:00,94.0,70.0,29.85,West,266,3.0,7.0,46,0.00,,,0.00,weatherlink.com 1.10,2013-08-31 22:01:00,
2013-08-31 15:16:00,93.5,70.0,29.85,WNW,292,8.0,9.0,47,0.00,,,0.00,weatherlink.com 1.10,2013-08-31 22:16:00,
2013-08-31 15:31:00,93.2,70.0,29.84,WNW,292,8.0,11.0,47,0.00,,,0.00,weatherlink.com 1.10,2013-08-31 22:31:00,
2013-08-31 15:46:00,92.6,70.0,29.84,West,267,6.0,10.0,48,0.00,,,0.00,weatherlink.com 1.10,2013-08-31 22:46:00,
2013-08-31 16:01:00,92.3,70.0,29.83,WNW,299,4.0,9.0,49,0.00,,,0.00,weatherlink.com 1.10,2013-08-31 23:01:00,
2013-08-31 16:16:00,91.6,70.0,29.83,NW,321,4.0,12.0,49,0.00,,,0.00,weatherlink.com 1.10,2013-08-31 23:16:00,
2013-08-31 16:31:00,90.8,70.0,29.83,West,269,3.0,12.0,51,0.00,,,0.00,weatherlink.com 1.10,2013-08-31 23:31:00,
2013-08-31 16:46:00,90.4,70.0,29.83,West,259,4.0,10.0,52,0.00,,,0.00,weatherlink.com 1.10,2013-08-31 23:46:00,
2013-08-31 17:01:00,90.0,71.0,29.83,West,280,5.0,11.0,53,0.00,,,0.00,weatherlink.com 1.10,2013-09-01 00:01:00,
2013-08-31 17:16:00,90.1,71.0,29.83,West,260,6.0,9.0,53,0.00,,,0.00,weatherlink.com 1.10,2013-09-01 00:16:00,
2013-08-31 17:31:00,89.9,70.0,29.83,West,281,5.0,11.0,53,0.00,,,0.00,weatherlink.com 1.10,2013-09-01 00:31:00,
2013-08-31 17:46:00,89.1,70.0,29.83,West,259,3.0,12.0,54,0.00,,,0.00,weatherlink.com 1.10,2013-09-01 00:46:00,
2013-08-31 18:01:00,89.0,71.0,29.83,WSW,255,3.0,10.0,55,0.00,,,0.00,weatherlink.com 1.10,2013-09-01 01:01:00,
2013-08-31 18:16:00,88.3,71.0,29.83,WNW,300,6.0,8.0,56,0.00,,,0.00,weatherlink.com 1.10,2013-09-01 01:16:00,
2013-08-31 18:31:00,88.0,70.0,29.83,NW,312,3.0,8.0,56,0.00,,,0.00,weatherlink.com 1.10,2013-09-01 01:31:00,
2013-08-31 18:46:00,87.3,70.0,29.83,West,279,4.0,7.0,57,0.00,,,0.00,weatherlink.com 1.10,2013-09-01 01:46:00,
2013-08-31 19:01:00,85.2,70.0,29.84,West,261,5.0,9.0,61,0.00,,,0.00,weatherlink.com 1.10,2013-09-01 02:01:00,
2013-08-31 19:16:00,84.0,70.0,29.85,WNW,285,3.0,10.0,62,0.00,,,0.00,weatherlink.com 1.10,2013-09-01 02:16:00,
2013-08-31 19:31:00,83.5,69.0,29.86,West,271,5.0,8.0,62,0.00,,,0.00,weatherlink.com 1.10,2013-09-01 02:31:00,
2013-08-31 19:46:00,82.9,69.0,29.86,West,266,1.0,7.0,63,0.00,,,0.00,weatherlink.com 1.10,2013-09-01 02:46:00,
2013-08-31 20:01:00,82.7,69.0,29.87,West,259,1.0,4.0,63,0.00,,,0.00,weatherlink.com 1.10,2013-09-01 03:01:00,
2013-08-31 20:16:00,82.2,68.0,29.88,West,273,0.0,6.0,63,0.00,,,0.00,weatherlink.com 1.10,2013-09-01 03:16:00,
2013-08-31 20:31:00,81.8,69.0,29.88,West,265,2.0,5.0,65,0.00,,,0.00,weatherlink.com 1.10,2013-09-01 03:31:00,
2013-08-31 20:46:00,81.7,69.0,29.88,WSW,257,1.0,5.0,65,0.00,,,0.00,weatherlink.com 1.10,2013-09-01 03:46:00,
2013-08-31 21:01:00,81.4,69.0,29.89,NW,319,3.0,6.0,67,0.00,,,0.00,weatherlink.com 1.10,2013-09-01 04:01:00,
2013-08-31 21:16:00,81.0,69.0,29.88,WNW,285,2.0,6.0,68,0.00,,,0.00,weatherlink.com 1.10,2013-09-01 04:16:00,
2013-08-31 21:31:00,80.7,68.0,29.89,WNW,303,4.0,8.0,66,0.00,,,0.00,weatherlink.com 1.10,2013-09-01 04:31:00,
2013-08-31 21:46:00,80.6,68.0,29.90,WNW,300,0.0,2.0,65,0.00,,,0.00,weatherlink.com 1.10,2013-09-01 04:46:00,
2013-08-31 22:01:00,80.6,68.0,29.89,NNW,332,3.0,5.0,66,0.00,,,0.00,weatherlink.com 1.10,2013-09-01 05:01:00,
2013-08-31 22:16:00,80.1,68.0,29.90,NW,305,2.0,4.0,67,0.00,,,0.00,weatherlink.com 1.10,2013-09-01 05:16:00,
2013-08-31 22:31:00,79.8,68.0,29.90,West,267,0.0,1.0,67,0.00,,,0.00,weatherlink.com 1.10,2013-09-01 05:31:00,
2013-08-31 22:46:00,79.8,67.0,29.89,WNW,297,1.0,3.0,66,0.00,,,0.00,weatherlink.com 1.10,2013-09-01 05:46:00,
2013-08-31 23:01:00,79.4,67.0,29.89,West,274,1.0,3.0,65,0.00,,,0.00,weatherlink.com 1.10,2013-09-01 06:01:00,
2013-08-31 23:16:00,78.8,66.0,29.89,West,271,1.0,1.0,65,0.00,,,0.00,weatherlink.com 1.10,2013-09-01 06:16:00,
2013-08-31 23:31:00,78.6,65.0,29.89,West,276,2.0,2.0,64,0.00,,,0.00,weatherlink.com 1.10,2013-09-01 06:31:00,
2013-08-31 23:46:00,78.4,65.0,29.89,West,276,0.0,1.0,63,0.00,,,0.00,weatherlink.com 1.10,2013-09-01 06:46:00,